Terug naar catalogus

THORAD AGENA D DEB

ActiefLEO
NORAD 4211·DEBRIS·🇺🇸 United States

Gelanceerd Sep 30, 1969 vanaf Vandenberg Space Force Base

Loading…

Volgende Passages (komende 24 uur)

TLE

VersSource: Space-Track

Epoch: Sep 14, 2026, 07:09 UTC

1 04211U 69082CA  26257.29819378  .00000099  00000-0  84169-4 0  9992
2 04211  70.0714 203.3888 0034125 226.3885 133.4397 14.11487326925609

Volg THORAD AGENA D DEB in realtime met AllMySat

Download on the App Store